Flag for U.S.A. Weather past 2 weeks in Visalia, California, U.S.A.

Now
66 °F

Sunny.


Feels Like: 66 °F
Forecast: 54 / 78 °F
Wind: 5 mph from Northwest

Location: Visalia Municipal

Current Time: Oct 20, 2014 at 11:06:08 AM

Latest Report: Oct 20, 2014 at 10:35 AM


Visibility: 9 mi

Pressure: 29.97 "Hg

Humidity: 64%

Dew point: 54 °F

Location of VisaliaLocation

Historic Weather in Visalia — Graph

°F

Visalia temperature yesterday

Maximum temperature yesterday: 81 °F (at 2:35 PM)
Minimum temperature yesterday: 50 °F (at 7:35 AM)
Average temperature yesterday: 65 °F

Past Weeks' High & Low Weather Summary

 TemperatureHumidityPressure
High95 °F (Oct 5, 4:35 PM)77% (Oct 12, 7:15 AM)30.05 "Hg (Oct 12, 7:15 AM)
Low50 °F (Oct 19, 7:35 AM)13% (Oct 9, 4:55 PM)29.76 "Hg (Oct 14, 4:15 PM)
Average70 °F51%29.92 "Hg
* Reported Oct 5 9:15 AM — Oct 20 9:55 AM, Visalia, Weather by CustomWeather, © 2014

Note: Actual official high and low records may vary slightly from our data, if they occured in-between our weather recording intervals... More about our weather records

Advertising

Visalia weather history for previous 24 hours

 ConditionsComfort  
Time TempWeatherWind HumidityBarometerVisibility
9:55 AM
Oct 20
64 °FSunny.5 mph68%29.96 "Hg9 mi
9:35 AM63 °FSunny.5 mph73%29.96 "Hg8 mi
9:15 AM61 °FSunny.5 mph72%29.96 "Hg7 mi
8:55 AM59 °FSunny.No wind77%29.95 "Hg9 mi
8:35 AM57 °FSunny.No wind72%29.94 "Hg9 mi
8:15 AM55 °FSunny.No wind77%29.93 "Hg8 mi
7:55 AM54 °FClear.No wind77%29.92 "Hg6 mi
7:35 AM52 °FClear.3 mph77%29.92 "Hg6 mi
7:15 AM52 °FClear.No wind72%29.91 "Hg7 mi
6:55 AM54 °FClear.No wind72%29.91 "Hg9 mi
6:35 AM54 °FClear.No wind72%29.90 "Hg9 mi
6:15 AM54 °FClear.No wind72%29.90 "Hg9 mi
5:55 AM55 °FClear.No wind67%29.90 "Hg9 mi
5:35 AM55 °FClear.No wind67%29.90 "Hg10 mi
4:55 AM55 °FClear.No wind67%29.89 "Hg10 mi
4:35 AM55 °FClear.No wind67%29.88 "Hg10 mi
4:15 AM57 °FClear.No wind67%29.88 "Hg10 mi
3:55 AM57 °FClear.No wind67%29.89 "Hg10 mi
3:35 AM55 °FClear.5 mph72%29.88 "Hg10 mi
3:15 AM57 °FClear.No wind72%29.88 "Hg10 mi
2:55 AM57 °FClear.No wind67%29.88 "Hg10 mi
2:35 AM57 °FClear.5 mph67%29.88 "Hg10 mi
2:15 AM57 °FClear.No wind67%29.88 "Hg10 mi
1:55 AM59 °FClear.No wind68%29.88 "Hg10 mi
1:35 AM59 °FClear.No wind63%29.88 "Hg10 mi
1:15 AM59 °FClear.No wind68%29.88 "Hg10 mi
12:55 AM61 °FClear.No wind63%29.88 "Hg10 mi
12:35 AM61 °FClear.No wind63%29.88 "Hg10 mi
12:15 AM59 °FClear.3 mph68%29.88 "Hg10 mi
11:55 PM
Oct 19
57 °FClear.No wind67%29.89 "Hg10 mi
11:35 PM61 °FClear.No wind63%29.89 "Hg10 mi
11:15 PM63 °FClear.5 mph64%29.89 "Hg10 mi
10:55 PM61 °FClear.5 mph63%29.89 "Hg10 mi
8:15 PM66 °FClear.No wind60%29.85 "Hg10 mi
7:55 PM66 °FClear.5 mph56%29.85 "Hg10 mi
7:35 PM66 °FClear.No wind56%29.85 "Hg10 mi
7:15 PM72 °FSunny.No wind47%29.84 "Hg10 mi
6:55 PM72 °FSunny.No wind47%29.84 "Hg10 mi
6:35 PM75 °FSunny.No wind44%29.84 "Hg10 mi
6:15 PM77 °FSunny.3 mph42%29.84 "Hg10 mi
5:55 PM79 °FSunny.3 mph42%29.83 "Hg10 mi
5:35 PM79 °FSunny.6 mph42%29.83 "Hg10 mi
5:15 PM79 °FSunny.5 mph42%29.83 "Hg10 mi
4:55 PM79 °FSunny.6 mph42%29.83 "Hg10 mi
4:35 PM81 °FSunny.6 mph39%29.84 "Hg10 mi
4:15 PM81 °FSunny.5 mph39%29.84 "Hg10 mi
3:55 PM81 °FSunny.5 mph37%29.84 "Hg10 mi
3:35 PM81 °FSunny.No wind37%29.85 "Hg10 mi
3:15 PM81 °FSunny.6 mph39%29.85 "Hg10 mi
2:55 PM79 °FSunny.3 mph42%29.85 "Hg10 mi
2:35 PM81 °FSunny.6 mph37%29.86 "Hg10 mi
2:15 PM79 °FSunny.3 mph39%29.86 "Hg10 mi
1:35 PM79 °FSunny.6 mph39%29.88 "Hg10 mi
1:15 PM77 °FSunny.6 mph44%29.89 "Hg10 mi
12:55 PM77 °FSunny.No wind42%29.89 "Hg10 mi
12:35 PM75 °FSunny.5 mph44%29.91 "Hg10 mi
12:15 PM75 °FSunny.3 mph47%29.92 "Hg10 mi
11:55 AM73 °FSunny.3 mph50%29.92 "Hg10 mi
11:35 AM73 °FSunny.No wind50%29.93 "Hg10 mi
11:15 AM72 °FSunny.No wind50%29.94 "Hg10 mi
Weather by CustomWeather, © 2014

See weather overviewHow to use our weather pages